Location: Llanfihangel-Ystrad
(52.1833°N, 4.1667°W)
Time: 08:04:34
(UTC+00:00)

Cosmos 1727 Rocket - Pass Details

Date: 17 February 2020
Orbit: 962 x 996 km, 82.9° (Epoch: 28 March)

Event Time Altitude Azimuth Distance (km) Brightness Sun altitude
Rises 06:17:28 0° 212° (SSW) 3,651 6.7 -11.6°
Reaches altitude 10° 06:20:07 10° 219° (SW) 2,704 6.0 -11.2°
Maximum altitude 06:25:57 43° 290° (WNW) 1,341 4.3 -10.3°
Drops below altitude 10° 06:31:49 10° 1° (N) 2,711 6.3 -9.4°
Sets 06:34:30 0° 8° (N) 3,661 7.0 -9.0°
